Location: Auttagershofen
(48.1940°N, 10.0237°E)
Time: 08:01:10
(UTC+00:00)

Lacrosse 5 rocket - Pass Details

Date: 18 January 2026
Orbit: 401 x 481 km, 57.0° (Epoch: 15 February)

Event Time Altitude Azimuth Distance (km) Brightness Sun altitude
Exits shadow 03:50:35 11° 43° (NE) 1,608 4.2 -31.6°
Drops below altitude 10° 03:50:49 10° 45° (NE) 1,681 4.3 -31.6°
Sets 03:53:21 0° 61° (ENE) 2,565 5.6 -31.2°
